Probability
0 0 0 0 0 0 0 0 0 0 0 0 0 0 1 0 0 2 3 2 1 0 3 7 10 11 12 15 13 9 8 11 11 10 8 6 4 2 1 0 1 3 3 3
0 0 0 0 0 0 0 0 0 0 0 0 0 1 1 1 1 3 5 4 2 2 4 6 8 9 9 10 9 6 5 6 7 6 4 3 2 2 1 1 2 3 3 2
0 0 0 0 0 0 0 0 0 0 0 0 0 1 1 1 1 3 5 5 5 5 5 6 6 5 4 5 6 4 3 4 4 3 1 0 1 1 1 1 1 2 2 1
0 0 0 0 0 0 0 0 0 0 0 0 0 1 1 1 1 3 5 6 7 7 6 6 5 4 4 5 5 4 4 5 5 2 0 0 0 0 1 1 0 1 2 2
0 0 0 0 0 0 0 0 0 0 0 1 1 1 2 2 2 4 6 8 8 7 5 5 5 5 5 6 5 4 5 6 5 2 1 1 1 0 0 0 0 1 2 3
0 0 0 0 0 0 0 0 0 0 1 2 2 2 2 3 4 4 6 7 7 6 5 4 5 5 5 4 5 5 6 6 4 3 3 3 2 1 0 0 0 0 1 1
0 0 0 0 0 0 0 0 1 1 1 2 3 2 3 4 5 4 4 4 4 4 4 4 4 4 3 3 3 6 7 6 4 4 5 5 3 1 0 0 0 0 0 0
0 0 0 1 1 1 1 1 3 2 1 2 3 3 4 4 4 4 3 2 2 3 3 3 3 4 3 3 4 5 6 5 4 5 5 4 3 1 1 0 0 0 0 1
0 0 0 1 2 2 2 4 5 4 2 2 2 3 3 3 3 3 2 1 1 1 2 2 3 4 4 4 5 4 3 2 3 4 4 3 3 3 2 1 0 0 1 2
0 0 0 0 1 1 3 5 5 4 3 2 2 2 1 1 2 1 0 0 1 2 2 2 3 3 4 4 4 3 2 2 3 3 3 3 4 4 4 3 2 1 1 2
0 0 0 0 0 1 2 3 3 3 3 3 3 2 2 1 0 0 0 0 1 2 3 3 2 3 3 4 4 4 3 3 4 3 3 4 4 4 4 4 3 2 2 3
0 0 0 0 0 0 1 2 1 1 1 2 2 2 2 1 0 0 0 0 1 2 3 4 3 3 3 4 5 5 5 5 5 4 3 3 3 2 2 2 1 1 2 2
0 0 0 0 1 1 1 1 1 0 1 1 1 1 1 0 0 0 0 0 0 1 3 4 3 3 3 5 6 7 7 7 7 6 4 3 1 1 1 0 0 0 1 1
0 0 0 0 1 2 3 3 2 1 1 0 0 0 0 0 0 0 0 0 0 1 3 3 3 3 3 5 6 8 9 9 9 8 5 3 2 2 2 1 1 0 0 0
0 0 0 0 1 3 3 3 3 2 1 0 0 0 0 0 0 0 0 0 1 2 2 2 2 1 2 3 5 7 8 9 9 8 6 4 2 2 3 3 2 1 0 0
0 0 0 0 1 2 2 1 2 2 1 0 0 0 0 0 0 0 0 0 1 1 1 1 1 0 0 1 3 5 7 7 7 6 6 4 2 1 2 2 2 1 0 0
0 0 0 0 0 0 0 0 1 1 0 0 0 0 0 0 0 0 0 0 0 0 0 0 0 0 1 1 3 4 5 5 4 3 4 4 2 1 1 1 1 0 0 0
0 0 0 0 0 0 0 0 0 0 0 0 0 0 0 0 0 0 0 0 0 0 0 0 0 0 1 2 3 4 4 3 2 1 2 2 2 2 2 1 0 0 0 0
0 0 0 0 0 0 0 0 0 0 0 0 0 1 1 1 0 0 0 0 0 0 0 0 0 1 1 1 2 3 4 3 1 0 1 1 1 1 1 1 0 0 0 0
0 0 0 0 0 0 0 0 0 0 0 0 0 1 1 1 0 0 0 0 0 0 0 0 1 1 1 0 0 2 4 4 2 0 0 0 0 0 0 0 0 0 0 0
0 0 0 0 0 0 0 0 0 0 0 0 0 0 1 1 0 0 0 0 0 0 0 0 1 2 1 0 0 1 2 3 2 0 0 0 0 0 0 0 0 0 0 0
0 0 0 0 0 0 0 0 0 0 0 0 0 0 0 0 0 0 0 0 0 0 0 0 0 1 1 0 0 1 1 1 1 0 0 0 0 0 0 0 0 0 0 0
0 0 0 0 0 0 0 0 0 0 0 0 0 0 0 0 0 0 0 0 0 0 0 0 0 0 0 0 1 1 1 0 0 0 0 0 0 0 0 0 0 0 0 0
0 0 0 0 0 0 0 0 0 0 0 0 0 0 0 0 0 0 0 0 0 0 0 0 0 0 0 1 2 2 1 0 0 0 0 0 0 0 0 0 0 0 0 0
0 0 0 0 0 0 0 0 0 0 0 0 0 0 0 0 0 0 0 0 0 0 0 0 0 0 1 2 3 2 1 0 0 0 0 0 0 0 0 0 0 0 0 0
0 0 0 0 0 0 0 0 0 0 0 0 0 0 0 0 0 0 0 0 0 0 0 0 0 0 1 2 3 3 1 0 0 0 0 0 0 0 0 0 0 0 0 0
0 0 0 0 0 0 0 0 0 0 0 0 0 0 0 0 0 0 0 0 0 0 0 0 0 0 1 2 3 3 2 1 0 0 0 0 0 0 0 0 0 0 0 0
Wind_Speed
2 2 2 1 1 1 3 5 6 6 6 6 4 4 4 3 2 1 1 0 1 2 2 3 3 3 3 3 3 4 4 4 3 2 2 2 2 2 1 1 2 1 1 1
1 1 1 1 2 1 2 2 3 3 5 4 3 2 2 3 2 2 3 2 2 3 3 3 3 3 3 3 3 3 4 3 3 3 2 2 2 1 1 1 1 1 1 1
2 2 2 2 3 2 2 2 3 5 6 2 2 3 4 4 4 5 4 4 4 4 4 4 4 4 4 3 3 3 3 3 3 3 3 2 2 1 2 2 1 1 1 1
1 1 3 5 2 2 2 2 2 3 2 2 4 5 4 4 5 5 4 4 4 3 4 3 3 3 4 3 4 3 3 3 3 3 2 2 2 2 2 2 2 2 2 2
3 2 3 4 1 1 2 3 1 1 2 3 3 3 4 3 3 4 3 3 2 3 3 3 3 4 4 3 3 3 3 3 3 3 2 2 2 3 2 2 2 2 2 2
3 3 4 4 4 2 2 3 2 1 2 3 2 2 5 4 3 3 2 1 1 2 2 3 3 4 4 3 3 4 4 3 3 3 3 2 2 2 1 2 2 2 1 2
2 2 4 4 4 1 2 5 3 2 3 2 2 5 5 4 4 3 2 1 1 2 2 2 3 4 4 3 4 3 3 3 3 3 3 3 2 1 1 1 1 1 0 1
2 2 5 3 1 2 4 3 3 3 3 3 4 4 4 3 3 2 1 1 1 2 1 1 2 4 4 4 3 2 2 2 2 2 2 2 3 2 2 2 1 1 0 1
5 6 4 2 2 2 2 2 3 3 4 3 3 3 3 3 3 2 1 1 0 2 1 1 1 3 4 3 2 3 3 2 2 2 2 2 3 3 2 2 2 1 1 1
2 4 4 3 2 2 1 2 3 3 3 2 3 3 3 3 3 2 1 1 1 1 1 1 1 2 3 2 3 3 3 2 2 2 1 1 1 2 2 2 2 2 2 2
3 4 4 4 3 4 3 3 3 4 3 2 3 3 2 2 2 2 1 0 1 1 1 1 1 1 1 2 3 3 2 2 1 2 2 1 1 1 2 3 3 3 3 3
5 5 3 5 5 3 2 3 3 3 3 2 2 3 2 2 2 2 1 1 1 0 1 1 1 1 1 2 3 4 3 2 2 2 1 1 1 0 1 1 2 3 4 4
5 4 3 4 4 3 2 3 3 2 2 3 2 2 2 2 2 2 1 0 1 1 1 1 1 1 1 1 2 3 3 3 2 2 2 2 1 1 1 2 2 1 3 3
3 1 2 3 3 3 3 3 2 3 3 2 2 2 1 1 1 2 2 1 1 1 1 1 0 1 1 1 2 2 3 3 3 2 2 2 2 2 1 1 1 2 2 2
2 2 4 3 3 3 2 1 2 3 3 3 2 2 1 1 1 2 2 1 0 0 1 1 1 1 1 1 2 2 2 2 2 2 2 1 1 1 1 1 1 1 1 2
3 2 2 1 2 3 2 2 2 3 3 3 2 2 2 1 1 1 2 1 1 1 2 2 2 2 2 2 2 2 2 3 3 2 2 1 1 1 1 1 0 0 1 1
1 3 3 3 3 3 3 3 3 4 3 3 3 2 1 1 1 1 2 1 1 2 2 2 2 2 2 2 2 2 2 2 2 2 2 1 1 1 1 1 1 1 1 1
3 4 3 3 3 4 4 4 3 4 3 3 2 1 1 1 2 2 2 1 1 1 1 1 1 1 2 2 2 2 2 2 2 2 2 1 1 1 2 2 2 2 1 1
2 2 3 2 2 3 3 4 4 4 3 2 1 2 2 2 2 2 1 1 0 1 2 1 1 1 1 2 2 2 2 2 2 2 2 2 2 1 1 2 2 2 1 1
3 3 3 3 3 2 3 3 3 2 2 1 1 2 2 2 1 1 0 1 2 2 2 2 1 1 1 2 3 2 2 3 2 2 2 2 2 1 1 2 2 2 2 1
3 3 3 3 3 3 2 2 1 2 2 1 1 2 2 2 1 1 1 1 3 1 1 1 1 1 1 2 2 2 2 2 2 2 2 2 1 1 1 1 2 2 2 2
3 3 3 3 2 3 2 2 1 2 2 1 1 1 1 1 1 1 1 2 2 1 1 0 1 1 2 2 2 2 2 2 2 2 2 2 2 2 2 1 2 2 2 2
3 3 3 3 2 2 2 2 2 2 2 2 2 2 2 2 1 1 2 2 1 1 0 1 1 1 2 2 2 2 2 2 2 2 2 2 2 2 2 2 2 2 2 2
3 3 2 2 1 1 2 3 3 2 2 2 2 2 2 1 1 1 1 2 1 0 0 1 1 1 1 1 2 2 2 2 2 2 2 2 2 2 2 2 2 2 2 2
3 2 1 1 1 1 2 3 3 3 2 2 2 1 1 1 1 1 1 1 1 0 0 1 1 1 1 1 1 2 2 2 2 2 2 2 2 2 2 2 2 2 2 2
2 2 1 2 2 2 1 1 2 2 2 1 2 1 1 1 0 0 0 0 1 1 0 0 1 0 1 1 1 1 1 2 2 2 2 2 2 2 1 1 2 2 2 2
2 2 1 2 2 1 1 1 1 2 1 1 1 1 1 1 1 1 1 0 0 0 0 0 0 0 0 0 1 1 1 1 1 1 1 1 1 1 1 1 1 1 1 1
Wind_Direction
216 217 166 189 249 183 183 187 195 230 226 244 250 261 263 260 274 295 279 235 177 181 173 163 157 162 160 160 157 153 146 144 157 159 155 152 156 168 174 179 184 194 197 197
293 213 148 324 317 212 222 216 217 229 250 247 261 272 276 265 246 244 235 223 210 190 185 185 182 172 159 156 156 147 149 155 155 150 149 148 163 165 154 177 196 192 200 193
249 292 26 298 256 212 209 220 192 221 241 273 288 272 256 248 234 235 236 223 212 208 202 198 197 183 171 166 146 145 159 160 155 155 149 169 173 155 173 200 206 215 223 207
158 76 217 245 262 182 196 250 224 231 265 271 260 271 269 255 234 238 236 228 219 213 207 198 187 173 158 154 149 153 163 162 157 157 164 176 178 195 210 204 202 219 226 222
130 168 266 294 297 184 194 270 271 247 293 307 318 330 310 287 251 245 248 249 236 219 203 177 176 167 151 156 160 163 175 176 174 169 171 185 200 215 216 201 213 225 225 220
126 156 228 258 292 286 129 278 295 275 283 306 9 338 288 313 315 299 283 253 223 201 168 165 179 160 151 175 182 192 196 190 178 169 172 192 211 222 221 202 209 206 229 242
146 194 259 275 302 30 149 259 295 254 260 251 225 236 269 307 313 303 283 257 200 164 164 183 176 159 168 193 209 210 195 174 168 172 176 183 187 174 158 158 153 146 218 292
148 176 256 298 53 149 232 272 294 278 262 247 259 279 291 299 301 309 304 276 149 136 175 194 169 163 179 205 210 183 167 162 166 170 182 171 156 151 147 147 146 167 259 315
190 213 246 259 219 234 214 255 271 272 276 258 267 286 299 308 307 304 304 315 140 143 164 197 171 170 192 210 175 159 152 164 167 165 167 160 162 165 156 160 166 200 213 254
265 274 280 286 291 301 265 261 279 275 272 260 254 264 284 299 308 311 325 357 52 100 135 234 208 178 197 191 156 151 155 166 154 147 143 130 150 169 171 181 189 204 215 234
260 276 303 301 284 285 299 312 312 315 303 263 254 270 278 291 292 290 293 318 112 133 185 233 227 202 188 172 152 150 154 158 152 158 161 157 168 185 190 195 194 197 215 214
235 237 221 263 284 296 301 304 300 308 320 308 255 257 272 273 268 258 243 197 161 174 231 254 213 194 184 170 158 154 157 165 168 169 164 160 163 23 2 226 240 229 224 214
241 255 240 272 294 298 283 288 297 294 281 288 297 266 251 270 280 278 274 252 211 219 224 224 189 167 201 170 160 164 172 182 176 165 159 169 182 189 254 346 353 290 261 245
249 261 294 284 275 278 280 291 306 313 305 298 294 299 300 320 316 299 282 264 234 231 261 257 169 223 219 166 164 175 182 185 171 169 170 179 193 203 204 209 286 323 315 283
285 239 234 264 294 298 293 313 336 323 319 319 302 296 302 295 300 297 295 311 352 324 256 248 249 268 243 172 168 181 181 173 167 159 157 161 178 181 180 189 226 282 348 350
295 313 308 313 311 312 324 322 301 294 296 294 296 291 279 265 283 296 294 267 189 239 250 222 219 232 212 181 172 172 169 163 160 156 153 151 168 171 174 188 215 280 299 313
294 302 306 309 303 298 287 278 269 271 276 276 269 273 292 325 336 316 304 289 241 246 247 221 222 219 197 181 171 166 161 161 159 154 155 166 176 189 185 180 197 223 252 268
230 236 246 254 268 286 290 284 278 278 272 269 278 282 249 235 251 267 286 306 336 335 309 255 221 203 191 176 165 161 160 160 161 167 163 168 186 200 196 193 207 219 244 240
304 290 287 284 278 272 275 277 278 280 284 281 284 286 264 260 258 254 277 279 233 294 296 289 231 174 173 176 156 154 156 157 157 167 168 177 194 201 196 198 212 223 233 233
316 307 303 310 307 283 279 287 297 305 307 300 320 318 307 287 266 248 270 273 253 239 245 249 225 209 200 187 169 163 164 163 162 162 165 177 193 198 193 198 212 226 229 226
291 293 296 299 299 297 292 292 306 302 302 306 295 282 277 275 267 219 181 294 302 306 282 232 212 216 214 184 170 162 161 156 159 165 175 188 197 200 209 212 215 223 226 229
284 287 290 293 296 299 304 303 298 302 303 316 318 306 294 289 296 319 283 251 270 305 326 273 237 217 193 169 160 156 158 162 169 174 183 194 198 202 218 223 221 224 225 227
284 281 283 289 288 293 313 319 310 296 287 283 276 267 256 254 234 207 272 280 264 251 226 260 276 234 179 161 161 161 166 172 180 184 187 197 208 207 212 219 220 215 216 220
296 294 289 296 331 359 329 312 309 294 278 272 263 249 227 236 283 257 236 242 245 237 216 286 293 242 179 155 159 168 178 186 191 198 199 197 209 210 211 213 218 220 219 218
298 298 309 340 333 295 289 307 327 329 328 323 313 293 260 217 217 237 220 202 182 117 14 333 309 259 200 169 171 185 194 197 194 193 197 200 209 209 211 212 211 218 224 224
308 304 290 262 247 255 279 314 321 316 322 324 327 329 341 10 55 81 61 129 127 102 63 12 342 282 210 190 198 201 198 190 190 193 190 187 190 189 192 207 215 217 221 225
332 328 328 333 321 302 298 297 288 294 298 298 308 323 344 33 79 86 77 67 81 38 10 4 338 288 247 209 203 172 170 184 187 180 170 166 167 182 199 204 215 222 220 218